Regional Weather Roundup
Issued by NWS Goodland, KS

Home | Current Version | Previous Version | Text Only | Print | Product List | Glossary Off
Versions: 1 2 3 4 5 6 7 8 9 10 11 12 13 14 15 16 17 18 19 20 21 22 23 24 25 26 27 28 29 30 31 32 33 34 35 36 37 38 39 40 41 42 43 44 45 46 47 48 49 50

000
ASUS43 KGLD 191208
RWRGLD

GOODLAND FORECAST AREA HOURLY WEATHER ROUNDUP
NATIONAL WEATHER SERVICE GOODLAND KS
600 AM MDT SAT AUG 19 2017

...OFFICIAL OBSERVATIONS...

CITY           SKY/WX    TMP DP  RH WIND       PRES   REMARKS
GOODLAND KS    CLEAR     64  56  75 S10       30.04S
HILL CITY KS   CLEAR     62  59  90 NW3       30.00R
IMPERIAL NEB   CLEAR     60  53  77 SW7       30.02S
MCCOOK NEB     CLEAR     56  54  93 E6        30.00F
AKRON CO       CLEAR     64  54  69 SW10      30.07S
BURLINGTON CO  CLEAR     62  58  86 S13       30.07F
LIMON CO       CLEAR     50  50 100 CALM      30.14F
$$

...UNOFFICIAL OBSERVATIONS...

CITY           SKY/WX    TMP DP  RH WIND       PRES   REMARKS
LENORA KS        N/A     66  32  28 CALM        N/A
NORTON KS      CLEAR     54  48  82 CALM      30.00S
SHARON SPRINGS   N/A     63  59  88 S9          N/A
TRENTON NEB      N/A     60  32  34 CALM        N/A
KIT CARSON CO    N/A     61  57  85 CALM        N/A
YUMA CO        FAIR      59  46  63 S10       30.04S
$$




USA.gov is the U.S. government's official web portal to all federal, state and local government web resources and services.